Location: Roanoke
(37.2710°N, 79.9420°W)
Time: 00:15:34
(UTC-04:00)

ISS - Visible Passes

Search period start: 23 March 2019 00:00
Search period end: 02 April 2019 00:00
Orbit: 406 x 411 km, 51.6° (Epoch: 23 March)

Date Brightness Start Highest point End Pass type
(mag) Time Alt. Az. Time Alt. Az. Time Alt. Az.
23 Mar -1.1 21:33:13 10° WNW 21:35:14 15° NNW 21:36:16 13° N visible
24 Mar -1.5 20:41:18 10° W 20:43:57 22° NNW 20:46:37 10° NNE visible
26 Mar -0.9 20:37:05 10° NW 20:38:40 13° NNW 20:40:15 10° N visible
01 Apr -0.8 21:58:41 10° NNW 21:59:19 13° N 21:59:19 13° N visible
